Regional Weather Roundup
Issued by NWS

Home | Current Version | Previous Version | Graphics & Text | Print | Product List | Glossary On
Versions: 1 2 3 4 5 6 7 8 9 10 11 12 13 14 15 16 17 18 19 20 21 22 23 24 25 26 27 28 29 30 31 32 33 34 35 36 37 38 39 40 41 42 43 44 45 46 47 48 49 50
000
ASUS43 KLOT 230606
RWRIL

ILLINOIS REGIONAL WEATHER ROUNDUP
NATIONAL WEATHER SERVICE CHICAGO/ROMEOVILLE IL
100 AM CDT THU OCT 23 2014

NOTE: "FAIR" INDICATES FEW OR NO CLOUDS BELOW 12,000 FEET WITH NO
SIGNIFICANT WEATHER AND/OR OBSTRUCTIONS TO VISIBILITY.

* THESE STATIONS ARE NOT UNDER NWS QUALITY CONTROL. THEY ALSO MAY NOT
  REPORT WEATHER SUCH AS PRECIPITATION OR FOG.

ILZ001-002-007-009-015-016-024-230700-
NORTHWEST ILLINOIS

CITY           SKY/WX    TMP DP  RH WIND       PRES   REMARKS
MOLINE         PTCLDY    44  35  70 SE7       30.19F
6HR MIN TEMP:  39; 6HR MAX TEMP:  48;

STERLING*      CLEAR     39  34  81 SE7       30.21F WCI  34
SAVANNA*       PTCLDY    43  34  72 CALM      30.20S
$$

ILZ003-004-008-010-011-017-018-230700-
NORTH CENTRAL ILLINOIS

CITY           SKY/WX    TMP DP  RH WIND       PRES   REMARKS
ROCKFORD       PTCLDY    40  34  79 SE9       30.23F
6HR MIN TEMP:  39; 6HR MAX TEMP:  50;

FREEPORT*      CLEAR     35  32  90 SE3       30.23S
ROCHELLE*      CLEAR     36  34  92 SE5       30.23F WCI  32
DE KALB*       CLEAR     36  33  90 SE6       30.24F WCI  31
PERU*          CLEAR     41  35  80 SE8       30.24F
$$

ILZ005-006-012>014-019>023-230700-
NORTHEAST ILLINOIS

CITY           SKY/WX    TMP DP  RH WIND       PRES   REMARKS
CHICAGO-OHARE  CLEAR     38  35  89 CALM      30.25F
6HR MIN TEMP:  35; 6HR MAX TEMP:  46;

CHICAGO-MIDWAY CLEAR     45  39  79 SE6       30.26F
6HR MIN TEMP:  44; 6HR MAX TEMP:  50;

AURORA         CLEAR     34  30  85 SE3       30.25F
6HR MIN TEMP:  33; 6HR MAX TEMP:  48;

LANSING*       CLEAR     36  36  98 CALM      30.26F
JOLIET*        CLEAR     36  34  95 CALM      30.25F
WAUKEGAN       FAIR      33  31  92 CALM      30.24F
6HR MIN TEMP:  31; 6HR MAX TEMP:  43;

DUPAGE AIRPORT CLEAR     35  33  92 CALM      30.24F
6HR MIN TEMP:  35; 6HR MAX TEMP:  48;

KANKAKEE*      CLEAR     37  35  95 CALM      30.26F
WHEELING       CLEAR     37  33  85 CALM      30.27F
6HR MIN TEMP:  36; 6HR MAX TEMP:  47;

MORRIS*        CLEAR     37  36  96 E3        30.24F
ROMEOVILLE*    CLEAR     38  36  92 SE6       30.25F FOG     WCI  33
NORTHERLY ISL    N/A     46  39  76 S7          N/A
$$

LMZ740>746-230700-
SOUTHERN LAKE MICHIGAN

STATION/POSITION SKY/WX   TEMP    WIND        PRES    VSBY  WAVE
                          AIR SEA DIR/SP/G                  HT/PER
                          (F)     (DEG/KT/KT) (MB)    (MI)  (FT/S)
SOUTHERN BUOY              50 54  160/ 12/ 14 1025.2F         1/ 3
WAUKEGAN HARBOR            45        CALM       N/A
HARRISON CRIB              50     160/ 10/ 14   N/A
BURNHAM HARBOR             46     170/  5/  6   N/A
CALUMET HARBOR             45     150/  4/  8 1023.5F
MICHIGAN CITY              41     120/  9/ 11   N/A
$$

ILZ025>027-034>036-040-047-049-050-058-095>099-230700-
WEST-CENTRAL ILLINOIS

CITY           SKY/WX    TMP DP  RH WIND       PRES   REMARKS
QUINCY         CLEAR     43  38  82 SE7       30.19F
GALESBURG*     PTCLDY    45  37  76 SE3       30.20F
MACOMB*        PTCLDY    41  37  85 SE8       30.23S
JACKSONVILLE*  CLEAR     44  38  78 SE6       30.22S
PITTSFIELD*    CLEAR     44  40  87 SE3       30.22F
$$

ILZ028>032-037-038-041>044-048-051>054-059>061-230700-
CENTRAL ILLINOIS

CITY           SKY/WX    TMP DP  RH WIND       PRES   REMARKS
PONTIAC        CLEAR     35  33  94 SE7       30.25F WCI  29
BLOOMINGTON    LGT RAIN  40  35  82 SE7       30.25F
DECATUR        CLEAR     36  34  92 CALM      30.25F
PEORIA         CLEAR     42  36  79 CALM      30.23F
6HR MIN TEMP:  42; 6HR MAX TEMP:  56;

LACON*         CLEAR     36  32  85 CALM      30.23S
LINCOLN*       CLEAR     37  34  90 CALM      30.24S
SPRINGFIELD    CLEAR     40  36  86 E3        30.23F
6HR MIN TEMP:  38; 6HR MAX TEMP:  52;

TAYLORVILLE    CLEAR     37  36  93 SE3       30.24F
$$

ILZ033-039-045-046-055>057-062-063-230700-
EAST-CENTRAL ILLINOIS

CITY           SKY/WX    TMP DP  RH WIND       PRES   REMARKS
CHAMPAIGN      CLEAR     39  35  86 E7        30.26S WCI  34
DANVILLE*      CLEAR     37  36  94 CALM      30.24S
RANTOUL*       CLEAR     41  36  83 CALM      30.25F
MATTOON        CLEAR     40  38  93 S5        30.25F
PARIS*         CLEAR     35  35  99 CALM      30.27S
$$

ILZ079-100>102-230700-
SOUTHWEST ILLINOIS

CITY           SKY/WX    TMP DP  RH WIND       PRES   REMARKS
ALTON          CLEAR     40  38  93 E5        30.23S
BELLEVILLE     CLEAR     40  40  99 CALM      30.22F FOG
CAHOKIA*       CLEAR     40  39  97 CALM      30.23F
SPARTA*        FOG       40  38  93 CALM      30.24F VSB 1
$$

ILZ064>066-069>071-074>076-080>082-084>086-088>090-092>094-230700-
SOUTH-CENTRAL ILLINOIS

CITY           SKY/WX    TMP DP  RH WIND       PRES   REMARKS
CARBONDALE     FOG       35  35 100 CALM      30.24F VSB 3/4
6HR MIN TEMP:  35; 6HR MAX TEMP:  48;

CAIRO*           N/A     43  40  89 CALM      30.23S FOG
EFFINGHAM*     CLEAR     38  35  90 CALM      30.25F
MARION         CLEAR     41  39  93 CALM      30.25S FOG
MT. VERNON     CLEAR     37  32  81 CALM      30.25S
CENTRALIA*     CLEAR     38  36  93 CALM      30.24F
SALEM*         CLEAR     39  38  94 CALM      30.25S
METROPOLIS*    CLEAR     42  42 100 CALM      30.22S
$$

ILZ067-068-072-073-078-083-087-091-230700-
SOUTHEAST ILLINOIS

CITY           SKY/WX    TMP DP  RH WIND       PRES   REMARKS
LAWRENCEVILLE  CLEAR     41  40  96 NE5       30.26S
FLORA*         CLEAR     39  38  98 CALM      30.26S
FAIRFIELD*     CLEAR     41  40  95 CALM      30.24F
HARRISBURG*    CLEAR     39  39 100 CALM      30.25F
ROBINSON*      CLEAR     39  39 100 CALM      30.27S FOG
CARMI*         FOG       40  40 100 CALM      30.24S VSB 1/2
$$

ABBREVIATIONS USED IN REMARKS
   TC - TEMPERATURE IN CELSIUS
  WCI - WIND CHILL INDEX
   HX - HEAT INDEX
  VSB - VISIBILITY
$$




USA.gov is the U.S. government's official web portal to all federal, state and local government web resources and services.